Location: Andershausen
(51.8462°N, 9.8595°E)
Time: 07:09:29
(UTC+00:00)

Aureole 3 Rocket - Pass Details

Date: 18 November 2025
Orbit: 398 x 1690 km, 82.5° (Epoch: 11 December)

Event Time Altitude Azimuth Distance (km) Brightness Sun altitude
Rises 16:56:24 0° 177° (S) 2,307 6.2 -13.7°
Reaches altitude 10° 16:58:22 10° 172° (S) 1,447 5.0 -14.0°
Maximum altitude 17:01:18 49° 95° (E) 544 2.4 -14.5°
Enters shadow 17:03:46 16° 23° (NNE) 1,273 4.3 -14.8°
